Weather History for Lee's Summit, MO

Change the Weather History Date:

Sunday, November 11, 2012

  Actual Average (KMKC) Record (KMKC)
Temperature  
Mean Temperature 48 °F -  
Max Temperature 66 °F 54 °F 72 °F (2007)
Min Temperature 28 °F 37 °F 26 °F (1997)
Degree Days  
Heating Degree Days 17    
Moisture  
Dew Point 41 °F    
Average Humidity 85    
Maximum Humidity 94    
Minimum Humidity 63    
Precipitation  
Precipitation 1.12 in - - ()
Sea Level Pressure  
Sea Level Pressure 29.85 in    
Wind  
Wind Speed 12 mph (WNW)    
Max Wind Speed 25 mph    
Max Gust Speed 36 mph    
Visibility 6 miles    
Events Rain , Thunderstorm    
Averages and records for this station are not official NWS values.
T = Trace of Precipitation, MM = Missing Value Source: NWS Daily Summary

Daily Weather History Graph

Daily Weather History Graph

Search for Another Location

Airport:

Trip Planner

Search our weather history database for the weather conditions in past years. The results will help you decide how hot, cold, wet, or windy it might be!

Date:

Astronomy

Nov. 11, 2012 Rise Set
Actual Time 6:56 AM CST 5:06 PM CST
Civil Twilight 6:28 AM CST 5:34 PM CST
Nautical Twilight 5:56 AM CST 6:06 PM CST
Astronomical Twilight 5:24 AM CST 6:38 PM CST
Moon 4:12 AM CST (11/11) 3:29 PM CST (11/11)
Length of Visible Light 11h 06m
Length of Day
10h 09m
Waning Crescent, 7% of the Moon is Illuminated
Nov 11
Waning Crescent
Nov 13
New
Nov 20
First Quarter
Nov 28
Full
Dec 6
Last Quarter

Hourly Weather History & Observations

Time (CST) Temp. Windchill Dew Point Humidity Pressure Visibility Wind Dir Wind Speed Gust Speed Precip Events Conditions
12:53 AM 66.0 °F - 53.1 °F 63% 29.73 in 10.0 mi South 12.7 mph 24.2 mph N/A   Overcast
1:53 AM 66.0 °F - 54.0 °F 65% 29.71 in 10.0 mi South 10.4 mph 19.6 mph N/A   Overcast
2:53 AM 64.9 °F - 54.0 °F 68% 29.68 in 10.0 mi SSE 11.5 mph 18.4 mph N/A   Overcast
3:53 AM 66.0 °F - 55.0 °F 68% 29.66 in 10.0 mi South 17.3 mph 23.0 mph N/A   Overcast
4:46 AM 62.6 °F - 55.4 °F 77% 29.69 in 5.0 mi SW 16.1 mph 26.5 mph 0.02 in Rain Rain
4:53 AM 61.0 °F - 55.9 °F 83% 29.68 in 6.0 mi SSW 12.7 mph - 0.03 in Rain Rain
5:03 AM 60.8 °F - 55.4 °F 82% 29.68 in 8.0 mi SSW 9.2 mph - 0.01 in Rain Light Rain
5:27 AM 60.8 °F - 55.4 °F 82% 29.67 in 10.0 mi SW 8.1 mph - 0.03 in Rain Light Rain
5:53 AM 59.0 °F - 55.9 °F 90% 29.66 in 6.0 mi WSW 6.9 mph - 0.05 in Rain Rain
6:07 AM 59.0 °F - 55.4 °F 88% 29.69 in 4.0 mi WSW 11.5 mph - 0.06 in Rain , Thunderstorm Rain
6:17 AM 57.2 °F - 55.4 °F 94% 29.70 in 1.8 mi WSW 9.2 mph 19.6 mph 0.22 in Rain , Thunderstorm Heavy Thunderstorms and Rain
6:25 AM 57.2 °F - 55.4 °F 94% 29.70 in 1.8 mi West 23.0 mph 29.9 mph 0.30 in Rain , Thunderstorm Heavy Thunderstorms and Rain
6:32 AM 55.4 °F - 53.6 °F 94% 29.72 in 3.0 mi West 25.3 mph 35.7 mph 0.32 in Rain , Thunderstorm Rain
6:40 AM 53.6 °F - 51.8 °F 94% 29.74 in 6.0 mi West 12.7 mph 34.5 mph 0.34 in Rain Rain
6:53 AM 53.1 °F - 51.1 °F 93% 29.71 in 7.0 mi NW 12.7 mph - 0.37 in Rain Light Rain
7:37 AM 46.4 °F 41.1 °F 44.6 °F 93% 29.78 in 5.0 mi WNW 11.5 mph - 0.13 in Rain Rain
7:53 AM 45.0 °F 38.5 °F 43.0 °F 93% 29.77 in 6.0 mi NW 13.8 mph - 0.17 in Rain Rain
8:21 AM 44.6 °F 37.4 °F 42.8 °F 93% 29.82 in 6.0 mi West 16.1 mph - 0.10 in Rain Rain
8:41 AM 42.8 °F 38.0 °F 39.2 °F 87% 29.81 in 2.5 mi NW 8.1 mph - 0.20 in Rain Rain
8:53 AM 42.1 °F 35.7 °F 39.9 °F 92% 29.80 in 3.0 mi NW 11.5 mph - 0.25 in Rain Heavy Rain
9:04 AM 41.0 °F 35.2 °F 39.2 °F 93% 29.81 in 6.0 mi NW 9.2 mph - 0.02 in Rain Light Rain
10:21 AM 37.4 °F 31.4 °F 35.6 °F 93% 29.88 in 3.0 mi NW 8.1 mph - 0.07 in Rain Rain
10:38 AM 37.4 °F 32.8 °F 35.6 °F 93% 29.87 in 2.5 mi NW 5.8 mph - 0.14 in Rain Rain
10:40 AM 37.4 °F 32.1 °F 35.6 °F 93% 29.87 in 3.0 mi NNW 6.9 mph - 0.14 in Rain Rain
10:53 AM 37.9 °F 30.5 °F 36.0 °F 93% 29.88 in 3.0 mi NW 11.5 mph 17.3 mph 0.20 in Rain Rain
12:00 PM 35.6 °F 25.9 °F 33.8 °F 93% 29.93 in 5.0 mi WNW 16.1 mph 23.0 mph 0.01 in Rain Light Rain
12:53 PM 33.1 °F 23.4 °F 30.9 °F 92% 29.91 in 6.0 mi NW 13.8 mph 20.7 mph 0.05 in   Overcast
2:53 PM 32.0 °F 23.6 °F 28.9 °F 88% 29.98 in 6.0 mi NW 10.4 mph - N/A   Overcast
3:45 PM 32.0 °F 24.2 °F 28.4 °F 87% 30.00 in 8.0 mi NW 9.2 mph 19.6 mph N/A   Overcast
3:53 PM 32.0 °F 23.6 °F 28.0 °F 85% 30.00 in 8.0 mi NW 10.4 mph - N/A   Overcast
4:36 PM 32.0 °F 22.5 °F 26.6 °F 80% 30.01 in 10.0 mi NW 12.7 mph - N/A   Overcast
4:53 PM 32.0 °F 23.6 °F 26.1 °F 79% 30.05 in 10.0 mi NW 10.4 mph - N/A   Overcast
5:53 PM 32.0 °F 28.7 °F 26.1 °F 79% 30.09 in 10.0 mi WNW 3.5 mph - N/A   Mostly Cloudy
6:53 PM 30.9 °F 22.2 °F 25.0 °F 79% 30.12 in 10.0 mi WNW 10.4 mph - N/A   Partly Cloudy
7:53 PM 30.9 °F 22.8 °F 23.0 °F 72% 30.16 in 10.0 mi NW 9.2 mph - N/A   Clear
8:53 PM 30.0 °F 21.1 °F 19.9 °F 66% 30.20 in 10.0 mi NW 10.4 mph - N/A   Clear
9:53 PM 28.9 °F 21.9 °F 19.9 °F 69% 30.22 in 10.0 mi WNW 6.9 mph - N/A   Clear